Weather in Alimkent

Uzbekistan     40°57′30″N   69°09′51″E
temp.,
°C
wind,
m/s
gust,
m/s
humid.,
%
clouds,
%
prec.,
mm/h
press.,
hPa
HPBL,
m
12 may, wed
wed1223:00+18ene33420 0.0 101520
02:00+17ene22430 0.0 101417
05:00+16ne23440 0.0 101418
08:00+21nne22340 0.0 1015256
11:00+26nnw33260 0.0 10142085
14:00+28nw54245 0.0 10132682
17:00+27nw54251 0.0 10122517
20:00+21nnw47450 0.0 1012115
13 may, thu
thu1323:00+18sw11520 0.0 101113
02:00+16s46560 0.0 1011102
05:00+14ssw36570 0.0 1011104
08:00+19ssw23420 0.0 1013410
11:00+24wsw21330 0.0 1012972
14:00+28nw34270 0.0 10101789
17:00+28nw552621 0.0 10102403
20:00+21nnw344099 0.0 101060
14 may, fri
fri1423:00+19se334955 0.0 101041
02:00+17s48470 0.0 1011142
05:00+15s37460 0.0 1012119
08:00+20s45340 0.0 1013415
11:00+24sw21260 0.0 1013877
14:00+28nnw33240 0.0 10111541
17:00+29nw34241 0.0 10101964
20:00+23nw33380 0.0 101023
15 may, sat
sat1523:00+20se22430 0.0 100916
02:00+18s34490 0.0 101055
05:00+16s35540 0.0 101187
08:00+21ssw34410 0.0 1012376
11:00+26sw21310 0.0 1011851
14:00+30nnw33250 0.0 10091438
17:00+31nw33240 0.0 10081760
20:00+24nw11360 0.0 100811
16 may, sun
sun1623:00+21ese34420 0.0 100847
02:00+20ene33440 0.0 100722
05:00+19s22450 0.0 100814
08:00+23ssw34400 0.0 1009303
11:00+29wsw22290 0.0 1009890
14:00+32nnw22200 0.0 10072190
17:00+33nw12160 0.0 10063087
20:00+25ne3434100 0.0 100742